N1SD KSDM-KSAN

Flight info

Callsign N1SD
Flight time N/A
Altitude VFR/005
Route VFR S
Aircraft EC45/L-VGD/C

Departure

Time N/A
Airport Brown Field Municipal Airport (KSDM)

Arrival

Time 2026-04-22 04:32
Airport San Diego International Airport (KSAN)
Time Latitude Longitude Altitude Speed Heading
2026-04-22 04:22 32.57047 -116.98505 526 ft 0 kts 275°
2026-04-22 04:23 32.57070 -116.98528 551 ft 16 kts 314°
2026-04-22 04:23 32.57142 -116.98882 673 ft 77 kts 271°
2026-04-22 04:23 32.57336 -116.99618 791 ft 106 kts 299°
2026-04-22 04:23 32.57736 -117.00424 826 ft 120 kts 290°
2026-04-22 04:24 32.57928 -117.01426 774 ft 130 kts 278°
2026-04-22 04:24 32.58271 -117.02406 720 ft 128 kts 299°
2026-04-22 04:24 32.58738 -117.03219 722 ft 118 kts 296°
2026-04-22 04:24 32.59182 -117.04019 662 ft 115 kts 302°
2026-04-22 04:25 32.59488 -117.04563 560 ft 122 kts 300°
2026-04-22 04:25 32.59900 -117.05424 567 ft 117 kts 293°
2026-04-22 04:25 32.60247 -117.06261 607 ft 109 kts 292°
2026-04-22 04:25 32.60476 -117.07147 507 ft 115 kts 283°
2026-04-22 04:26 32.60838 -117.08266 408 ft 107 kts 291°
2026-04-22 04:26 32.61094 -117.08756 412 ft 102 kts 306°
2026-04-22 04:26 32.61455 -117.09467 428 ft 99 kts 291°
2026-04-22 04:26 32.62107 -117.10326 467 ft 112 kts 322°
2026-04-22 04:27 32.62553 -117.10644 472 ft 110 kts 319°
2026-04-22 04:27 32.63193 -117.11148 566 ft 115 kts 317°
2026-04-22 04:27 32.63770 -117.11821 510 ft 113 kts 303°
2026-04-22 04:27 32.64331 -117.12452 517 ft 105 kts 318°
2026-04-22 04:28 32.64971 -117.12802 644 ft 102 kts 331°
2026-04-22 04:28 32.65662 -117.13104 654 ft 108 kts 335°
2026-04-22 04:28 32.66337 -117.13552 643 ft 117 kts 323°
2026-04-22 04:28 32.67111 -117.13865 607 ft 116 kts 344°
2026-04-22 04:29 32.67810 -117.14274 578 ft 111 kts 320°
2026-04-22 04:29 32.68427 -117.14814 531 ft 114 kts 317°
2026-04-22 04:29 32.69041 -117.15437 446 ft 125 kts 309°
2026-04-22 04:29 32.69617 -117.16207 507 ft 125 kts 310°
2026-04-22 04:30 32.70224 -117.16977 441 ft 128 kts 311°
2026-04-22 04:30 32.70843 -117.17713 504 ft 126 kts 306°
2026-04-22 04:30 32.71562 -117.18339 492 ft 129 kts 327°
2026-04-22 04:30 32.72365 -117.18873 477 ft 131 kts 327°
2026-04-22 04:31 32.73109 -117.19146 536 ft 86 kts 27°
2026-04-22 04:31 32.73521 -117.18815 431 ft 67 kts 73°
2026-04-22 04:31 32.73606 -117.18306 507 ft 58 kts 99°
2026-04-22 04:31 32.73628 -117.17831 418 ft 54 kts 180°
2026-04-22 04:32 32.73428 -117.17750 212 ft 29 kts 263°
2026-04-22 04:32 32.73412 -117.17881 91 ft 8 kts 285°
2026-04-22 04:32 32.73429 -117.17896 17 ft 0 kts 279°